Regional Weather Roundup
Issued by NWS Nashville, TN

Home | Current Version | Previous Version | Text Only | Print | Product List | Glossary On
Versions: 1 2 3 4 5 6 7 8 9 10 11 12 13 14 15 16 17 18 19 20 21 22 23 24 25 26 27 28 29 30 31 32 33 34 35 36 37 38 39 40 41 42 43 44 45 46 47 48 49
000
ASUS44 KOHX 280510
RWROHX
MIDDLE TENNESSEE HOURLY WEATHER ROUNDUP
NATIONAL WEATHER SERVICE NASHVILLE TN
1200 AM CDT FRI AUG 28 2015

NOTE: "FAIR" INDICATES FEW OR NO CLOUDS BELOW 12,000 FEET WITH
NO SIGNIFICANT WEATHER AND/OR OBSTRUCTIONS TO VISIBILITY.

* THESE REPORTS ARE NOT UNDER NWS QUALITY CONTROL AND MAY NOT
  REPORT WEATHER SUCH AS PRECIPITATION AND FOG.


TNZ005>011-023>034-057-059-062>066-078-080-280600
...NORTHERN MIDDLE TENNESSEE...

CITY           SKY/WX    TMP DP  RH WIND       PRES   REMARKS
CLARKSVILLE    LGT RAIN  63  56  78 E5        30.10R
CROSSVILLE     PTCLDY    63  56  78 NE3       30.15F
DICKSON        CLEAR     63  55  77 E3        30.09S
NASHVILLE      CLEAR     69  57  65 E5        30.09F
SMYRNA         CLEAR     60  57  89 CALM      30.10F
$$
TNZ056-058-060-061-075>077-079-093>097-280600
...SOUTHERN MIDDLE TENNESSEE...

CITY           SKY/WX    TMP DP  RH WIND       PRES   REMARKS
COLUMBIA       CLEAR     61  61 100 CALM      30.07F
LEWISBURG      CLEAR     59  56  89 CALM      30.09S
MCMINNVILLE    CLEAR     64  63  94 CALM      30.11F
SHELBYVILLE    CLEAR     64  61  88 CALM      30.10F
TULLAHOMA      CLEAR     66  57  72 NE5       30.11S
WINCHESTER     CLEAR     63  61  94 CALM      30.10S
$$


...KEY TO REMARKS...
VSB - VISIBILITY IN MILES
WCI - WIND CHILL INDEX
HX  - HEAT INDEX



USA.gov is the U.S. government's official web portal to all federal, state and local government web resources and services.